Regional Weather Roundup
Issued by NWS State College, PA

Home | Current Version | Previous Version | Text Only | Print | Product List | Glossary On
Versions: 1 2 3 4 5 6 7 8 9 10 11 12 13 14 15 16 17 18 19 20 21 22 23 24 25 26 27 28 29 30 31 32 33 34 35 36 37 38 39 40 41 42 43 44 45 46 47 48 49 50
000
ASUS41 KCTP 232010
RWRCTP

REGIONAL WEATHER ROUNDUP
NATIONAL WEATHER SERVICE STATE COLLEGE PA
400 PM EDT MON OCT 23 2017

Note: "fair" indicates few or no clouds below 12,000 feet with no
significant weather and/or obstructions to visibility.

* = STATION THAT DOES NOT REPORT PRECIPITATION /E.G. RAIN...SNOW...ETC/
    THUNDER OR FOG.

PAZ002>004-007>009-013>016-020>023-029>032-232100-
WESTERN PENNSYLVANIA

CITY           SKY/WX    TMP DP  RH WIND       PRES   REMARKS
ERIE           LGT RAIN  65  59  81 S14G23    29.79F
MEADVILLE      HVY RAIN  61  60  97 MISG      29.81F FOG
FRANKLIN*      LGT RAIN  61  58  90 SE20      29.85F
NEW CASTLE     LGT RAIN  62  62 100 SE7       29.81F
BEAVER COUNTY  NOT AVBL
BUTLER*        LGT RAIN  61  59  93 E14       29.83F
PITTSBURGH INT LGT RAIN  63  60  90 SE17G25   29.81F
PITTSBURGH     LGT RAIN  62  58  86 SE12G22   29.83F
INDIANA*       CLOUDY    64  57  77 SE13G24   29.92F
LATROBE        PTSUNNY   64  59  82 S7        29.88F
WASHINGTON CO* RAIN      62  59  90 SE12      29.84F
$$

PAZ004>006-010>012-017>019-024>028-033>037-041-042-045-046-049>053-232100-
CENTRAL PENNSYLVANIA

CITY           SKY/WX    TMP DP  RH WIND       PRES   REMARKS
BRADFORD       CLOUDY    63  53  70 SE15G28   29.93F
DUBOIS           N/A     63  53  70 SE18G26   29.91F
CLEARFIELD     CLOUDY    66  54  65 VRB7      29.97F
JOHNSTOWN      CLOUDY    61  54  77 SE16G28   29.93F
ALTOONA        CLOUDY    67  56  67 SE15G23   29.97F
STATE COLLEGE  PTSUNNY   64  55  72 SE10      29.99F
WILLIAMSPORT   CLOUDY    71  60  68 E8G17     30.01F
SELINSGROVE    CLOUDY    70  61  73 S12G18    30.02F
FT INDIANTOWN  CLOUDY    72  63  75 SE10      30.03F
CAPITAL CITY   CLOUDY    73  60  63 SE10      30.02F
HARRISBURG     CLOUDY    72  62  71 SE8       30.02F
YORK           CLOUDY    72  61  68 SE14G24   30.03F
$$

PAZ038>040-043-044-047-048-054-055-060>062-067>071-232100-
EASTERN PENNSYLVANIA

CITY           SKY/WX    TMP DP  RH WIND       PRES   REMARKS
SCRANTON       CLOUDY    72  60  66 S12G18    30.08F
MOUNT POCONO   CLOUDY    63  61  93 SE13G20   30.13F
ALLENTOWN      CLOUDY    73  61  65 SE13      30.09F
QUAKERTOWN*    CLOUDY    72  63  73 SE7       30.10F
READING        CLOUDY    73  64  73 SE9       30.05F
LANCASTER      PTSUNNY   73  64  73 SE13      30.04F
COATESVILLE    CLOUDY    72  63  73 SE13G23   30.09F
POTTSTOWN      CLOUDY    73  62  68 VRB7      30.10F
BLUE BELL      CLOUDY    72  63  73 SE9       30.11F
DOYLESTOWN     CLOUDY    71  62  73 VRB6      30.09F
WILLOW GROVE   NOT AVBL
NORTH PHILA    CLOUDY    74  63  68 S7        30.12F
PHILADELPHIA   CLOUDY    74  63  68 SE10      30.10F
$$




USA.gov is the U.S. government's official web portal to all federal, state and local government web resources and services.